DD3UTS-13 Weather Reports


time (UTC)temp
C
wind
direction
speed
KPH
gust
KPH
rain 1hr
cm
rain 24hr
cm
rain mn
cm
humidity
%
barometer
mb
20260505041531 12 270 0.0 0.0 0.00 0.00 0.00 77 1008.8
20260505041032 12 270 3.2 0.0 0.00 0.00 0.00 77 1008.7
20260505040531 12 265 4.8 0.0 0.00 0.00 0.00 77 1008.8
20260505040032 12 257 0.0 0.0 0.00 0.00 0.00 76 1008.8
20260505035531 12 260 0.0 0.0 0.00 0.00 0.00 76 1008.8
20260505035032 12 262 6.4 0.0 0.00 0.00 0.00 76 1008.8
20260505034532 12 265 0.0 0.0 0.00 0.00 0.00 76 1008.8
20260505034032 12 265 0.0 0.0 0.00 0.00 0.00 75 1008.9
20260505033531 12 265 0.0 0.0 0.00 0.00 0.00 75 1008.9
20260505033031 12 265 0.0 0.0 0.00 0.00 0.00 75 1009.0
20260505032531 12 265 6.4 0.0 0.00 0.00 0.00 74 1009.0
20260505032031 12 277 6.4 0.0 0.00 0.00 0.00 74 1009.0
20260505031532 12 310 8.0 0.0 0.00 0.00 0.00 75 1009.0
20260505031031 12 290 8.0 0.0 0.00 0.00 0.00 75 1009.1
20260505030532 12 180 0.0 0.0 0.00 0.00 0.00 74 1009.2
20260505030031 12 170 0.0 0.0 0.00 0.00 0.00 74 1009.2
20260505025532 12 170 0.0 0.0 0.00 0.00 0.00 74 1009.3
20260505025032 12 167 0.0 0.0 0.00 0.00 0.00 73 1009.3
20260505024532 12 167 0.0 0.0 0.00 0.00 0.00 72 1009.4
20260505024032 12 167 0.0 0.0 0.00 0.00 0.00 73 1009.4
20260505023531 12 167 0.0 0.0 0.00 0.00 0.00 73 1009.4
20260505023031 12 167 0.0 0.0 0.00 0.00 0.00 73 1009.5
20260505022532 13 167 0.0 0.0 0.00 0.00 0.00 73 1009.5
20260505022031 13 167 0.0 0.0 0.00 0.00 0.00 73 1009.6
20260505021531 13 167 0.0 0.0 0.00 0.00 0.00 73 1009.7
20260505021031 13 145 0.0 0.0 0.00 0.00 0.00 72 1009.7
20260505020532 13 280 0.0 0.0 0.00 0.00 0.00 72 1009.8
20260505020032 13 280 0.0 0.0 0.00 0.00 0.00 71 1009.8
20260505015531 13 280 0.0 0.0 0.00 0.00 0.00 71 1009.8
20260505015032 13 280 0.0 0.0 0.00 0.00 0.00 71 1009.8
20260505014532 13 280 0.0 0.0 0.00 0.00 0.00 71 1009.9
20260505014031 13 280 0.0 0.0 0.00 0.00 0.00 71 1010.0
20260505013531 13 280 0.0 0.0 0.00 0.00 0.00 71 1010.0
20260505013031 13 280 3.2 0.0 0.00 0.00 0.00 71 1010.0
20260505012531 13 277 4.8 0.0 0.00 0.00 0.00 70 1010.1
20260505012031 13 230 4.8 0.0 0.00 0.00 0.00 70 1010.1
20260505011532 13 152 0.0 0.0 0.00 0.00 0.00 70 1010.2
20260505011031 13 180 6.4 0.0 0.00 0.00 0.00 70 1010.2
20260505010532 14 180 6.4 0.0 0.00 0.00 0.00 70 1010.3
20260505010031 14 220 0.0 0.0 0.00 0.00 0.00 69 1010.3
20260505005532 14 275 0.0 0.0 0.00 0.00 0.00 68 1010.3
20260505005032 14 275 0.0 0.0 0.00 0.00 0.00 68 1010.3
20260505004531 14 275 0.0 0.0 0.00 0.00 0.00 68 1010.4
20260505004032 14 275 0.0 0.0 0.00 0.00 0.00 68 1010.4
20260505003532 14 275 0.0 0.0 0.00 0.00 0.00 68 1010.5
20260505003032 14 260 0.0 0.0 0.00 0.00 0.00 68 1010.6
20260505002531 14 260 0.0 0.0 0.00 0.00 0.00 68 1010.7
20260505002032 15 260 0.0 0.0 0.00 0.00 0.00 67 1010.7
20260505001531 15 260 0.0 0.0 0.00 0.00 0.00 67 1010.7
20260505001031 15 260 0.0 0.0 0.00 0.00 0.00 67 1010.8
20260505000531 15 260 0.0 0.0 0.00 0.00 0.00 67 1010.8
20260505000031 15 260 0.0 0.0 0.00 0.00 0.00 67 1010.8
20260504235531 15 260 0.0 0.0 0.00 0.00 0.00 67 1010.9
20260504235032 15 260 0.0 0.0 0.00 0.00 0.00 66 1010.9
20260504234532 15 260 0.0 0.0 0.00 0.00 0.00 66 1010.9
20260504234031 15 260 0.0 0.0 0.00 0.00 0.00 66 1010.9
20260504233532 15 260 0.0 0.0 0.00 0.00 0.00 66 1010.9
20260504233032 15 260 0.0 0.0 0.00 0.00 0.00 66 1010.9
20260504232532 15 260 0.0 0.0 0.00 0.00 0.00 66 1011.0
20260504232032 15 260 0.0 0.0 0.00 0.00 0.00 66 1011.0
20260504231532 15 260 0.0 0.0 0.00 0.00 0.00 67 1011.0
20260504231031 15 260 0.0 0.0 0.00 0.00 0.00 67 1011.0
20260504230531 14 260 0.0 0.0 0.00 0.00 0.00 67 1011.0
20260504230031 14 260 0.0 0.0 0.00 0.00 0.00 67 1010.9
20260504225531 14 260 0.0 0.0 0.00 0.00 0.00 68 1010.9
20260504225031 14 260 0.0 0.0 0.00 0.00 0.00 68 1011.0
20260504224531 14 260 0.0 0.0 0.00 0.00 0.00 67 1011.0
20260504224031 15 282 4.8 0.0 0.00 0.00 0.00 67 1011.1
20260504223532 15 275 8.0 0.0 0.00 0.00 0.00 67 1011.1
20260504223032 15 95 4.8 0.0 0.00 0.00 0.00 66 1011.1
20260504222532 15 105 0.0 0.0 0.00 0.00 0.00 65 1011.0
20260504222031 16 120 4.8 0.0 0.00 0.00 0.00 62 1011.0
20260504221531 16 115 4.8 0.0 0.00 0.00 0.00 61 1011.0
20260504221031 16 112 4.8 0.0 0.00 0.00 0.00 61 1010.9
20260504220532 16 110 6.4 0.0 0.00 0.00 0.00 61 1010.8
20260504220031 16 110 6.4 0.0 0.00 0.00 0.00 61 1010.7
20260504215531 16 107 6.4 0.0 0.00 0.00 0.00 62 1010.8
20260504215031 16 90 6.4 0.0 0.00 0.00 0.00 63 1011.0
20260504214532 16 105 6.4 0.0 0.00 0.00 0.00 63 1011.0
20260504214031 15 107 6.4 0.0 0.00 0.00 0.00 64 1011.1
20260504213531 15 107 0.0 0.0 0.00 0.00 0.00 64 1011.2
20260504213032 15 107 0.0 0.0 0.00 0.00 0.00 64 1011.3
20260504212532 15 110 0.0 0.0 0.00 0.00 0.00 64 1011.4
20260504212031 15 130 0.0 0.0 0.00 0.00 0.00 64 1011.5
20260504211532 15 130 0.0 0.0 0.00 0.00 0.00 65 1011.6
20260504211031 15 130 0.0 0.0 0.00 0.00 0.00 64 1011.7
20260504210532 15 110 0.0 0.0 0.00 0.00 0.00 64 1011.6
20260504210031 16 105 0.0 0.0 0.00 0.00 0.00 62 1011.7
20260504205532 16 100 0.0 0.0 0.00 0.00 0.00 61 1011.8
20260504205031 16 100 0.0 0.0 0.00 0.00 0.00 61 1011.7
20260504204531 16 100 0.0 0.0 0.00 0.00 0.00 61 1011.8
20260504204032 16 100 0.0 0.0 0.00 0.00 0.00 60 1011.7
20260504203532 16 100 0.0 0.0 0.00 0.00 0.00 60 1011.8
20260504203032 16 100 0.0 0.0 0.00 0.00 0.00 60 1011.8
20260504202532 16 77 0.0 0.0 0.00 0.00 0.00 61 1011.8
20260504202031 16 305 0.0 0.0 0.00 0.00 0.00 60 1011.8
20260504201532 16 305 0.0 0.0 0.00 0.00 0.00 59 1011.8
20260504201031 16 305 0.0 0.0 0.00 0.00 0.00 58 1011.8
20260504200532 16 305 0.0 0.0 0.00 0.00 0.00 58 1011.8
20260504200032 16 305 0.0 0.0 0.00 0.00 0.00 58 1011.8
20260504195532 16 305 0.0 0.0 0.00 0.00 0.00 58 1011.8
20260504195032 16 305 0.0 0.0 0.00 0.00 0.00 58 1011.7
20260504194532 16 305 0.0 0.0 0.00 0.00 0.00 57 1011.7
20260504194032 17 305 0.0 0.0 0.00 0.00 0.00 57 1011.7
20260504193531 17 305 0.0 0.0 0.00 0.00 0.00 57 1011.7
20260504193032 17 305 0.0 0.0 0.00 0.00 0.00 57 1011.7
20260504192532 17 305 0.0 0.0 0.00 0.00 0.00 57 1011.7
20260504192032 17 305 0.0 0.0 0.00 0.00 0.00 56 1011.7
20260504191532 17 305 0.0 0.0 0.00 0.00 0.00 56 1011.6
20260504191031 17 305 0.0 0.0 0.00 0.00 0.00 56 1011.6
20260504190532 17 305 0.0 0.0 0.00 0.00 0.00 55 1011.6
20260504190032 17 305 0.0 0.0 0.00 0.00 0.00 55 1011.7
20260504185532 17 305 0.0 0.0 0.00 0.00 0.00 55 1011.7
20260504185031 17 305 0.0 0.0 0.00 0.00 0.00 54 1011.6
20260504184531 17 305 0.0 0.0 0.00 0.00 0.00 54 1011.6
20260504184032 17 305 0.0 0.0 0.00 0.00 0.00 53 1011.6
20260504183532 18 305 0.0 0.0 0.00 0.00 0.00 53 1011.6
20260504183032 18 305 0.0 0.0 0.00 0.00 0.00 53 1011.6
20260504182532 18 305 0.0 0.0 0.00 0.00 0.00 52 1011.5
20260504182032 18 302 0.0 0.0 0.00 0.00 0.00 52 1011.5
20260504181531 18 302 0.0 0.0 0.00 0.00 0.00 51 1011.5
20260504181032 18 305 0.0 0.0 0.00 0.00 0.00 51 1011.6
20260504180531 19 302 0.0 0.0 0.00 0.00 0.00 51 1011.6
20260504180036 19 302 0.0 0.0 0.00 0.00 0.00 50 1011.6
20260504175531 20 302 0.0 0.0 0.00 0.00 0.00 49 1011.5
20260504175031 20 302 0.0 0.0 0.00 0.00 0.00 48 1011.5
20260504174531 20 300 0.0 0.0 0.00 0.00 0.00 48 1011.5
20260504174031 21 32 0.0 0.0 0.00 0.00 0.00 47 1011.5
20260504173532 21 317 0.0 0.0 0.00 0.00 0.00 47 1011.5
20260504173032 21 320 0.0 0.0 0.00 0.00 0.00 46 1011.6
20260504172531 21 345 0.0 0.0 0.00 0.00 0.00 46 1011.6
20260504172031 21 3 6.4 0.0 0.00 0.00 0.00 46 1011.6
20260504171531 21 355 3.2 0.0 0.00 0.00 0.00 47 1011.7
20260504171031 21 345 4.8 0.0 0.00 0.00 0.00 46 1011.7
20260504170532 21 350 6.4 0.0 0.00 0.00 0.00 47 1011.8
20260504151037 22 320 8.0 0.0 0.00 0.00 0.00 44 1012.1
20260504150532 22 335 8.0 0.0 0.00 0.00 0.00 45 1012.1
20260504141031 23 300 11.3 0.0 0.00 0.00 0.00 45 1012.2
20260504140532 23 315 8.0 0.0 0.00 0.00 0.00 43 1012.2
20260504130532 23 357 8.0 0.0 0.00 0.00 0.00 44 1012.6
20260504110531 23 222 11.3 0.0 0.00 0.00 0.00 38 1012.8
20260504100531 22 180 19.3 0.0 0.00 0.00 0.00 38 1013.2
20260504081532 19 245 6.4 0.0 0.00 0.00 0.00 46 1013.6
20260504081032 19 260 0.0 0.0 0.00 0.00 0.00 47 1013.5
20260504080532 19 260 6.4 0.0 0.00 0.00 0.00 47 1013.5
20260504050532 14 177 6.4 0.0 0.00 0.00 0.00 59 1012.7
20260504045531 14 182 6.4 0.0 0.00 0.00 0.00 58 1012.6